FLOCK 4E'-2 (46820 NORAD) Tracking and Keplerian Element Data

This shows tracking and keplerian element data for the satellite.

Feedback or suggestion? Click here.




ElementValue
Catalog46820
NameFLOCK 4E'-2
Epoch Orbit515
Epoch Day336.90329243
Epoch Year2020
RAAN37.03
Inclination97.5008
Eccentricity0.0014559
Argument of Perigee172.9625
Mean Anonmoly301.6656
Mean Motion15.17325837
Decay Rate2.173E-05
L11 46820U 20077H 20336.90329243 .00002173 00000-0 11211-3 0 9994
L22 46820 97.5008 37.0300 0014559 172.9625 301.6656 15.17325837 5150

Live tracking and technical data element details for FLOCK 4E'-2 (NORAD 46820). FLOCK 4E'-2 can be tracked NOW for your location showing map with azimuth and elevation plus other details from your city location.

Track the satellite on the map from your city or location and see movement details for azimuth, elevation, latitude, longitude, range, height, and movement on the map or in text.







IsCatalogInMostPopularTable: catalog: 46820, numindb: 11
Update: records affected: 1



GetName: 46820 FLOCK 4E'-2

Hit Count: updated at: Thu, 03 Dec 2020 03:02:07 GMT